Home > Weather > Heilbronn > Past weeks

Flag for Germany Past Weather in Heilbronn, Baden-Württemberg, Germany — Yesterday and Last 2 Weeks

Now
75 °F

Broken clouds.


Feels Like: 77 °F
Forecast: 62 / 81 °F
Wind: 6 mph from North

Location: Stuttgart-Echterdingen

Current Time: Jul 23, 2016 at 5:14:39 PM

Latest Report: Jul 23, 2016 at 4:20 PM


Visibility: N/A

Pressure: 30.07 "Hg

Humidity: 65%

Dew Point: 63 °F

Location of HeilbronnLocation

Past Weather in Heilbronn — Graph

°F

Heilbronn Temperature Yesterday

Maximum temperature yesterday: 81 °F (at 1:50 PM)
Minimum temperature yesterday: 59 °F (at 5:20 AM)
Average temperature yesterday: 69 °F

High & Low Weather Summary for the Past Weeks

 TemperatureHumidityPressure
High91 °F (Jul 20, 4:20 PM)100% (Jul 18, 6:20 AM)30.33 "Hg (Jul 18, 6:20 AM)
Low48 °F (Jul 15, 5:50 AM)28% (Jul 20, 4:50 PM)29.89 "Hg (Jul 10, 5:20 PM)
Average69 °F68%30.09 "Hg
* Reported Jul 8 3:20 PM — Jul 23 3:50 PM, Heilbronn, Weather by CustomWeather, © 2016

Note: Actual official high and low records may vary slightly from our data, if they occured in-between our weather recording intervals... More about our weather records

Advertising

Heilbronn Weather History for the Previous 24 Hours

Scroll right to see more
 ConditionsComfort  
Time TempWeatherWind HumidityBarometerVisibility
3:50 PM
Sat, Jul 23
75 °FBroken clouds.3 mph65%30.07 "HgN/A
3:20 PM75 °FBroken clouds.6 mph69%30.07 "HgN/A
2:50 PM73 °FBroken clouds.5 mph74%30.07 "HgN/A
2:20 PM73 °FBroken clouds.3 mph74%30.07 "HgN/A
1:50 PM72 °FBroken clouds.5 mph73%30.09 "HgN/A
1:20 PM70 °FBroken clouds.1 mph83%30.07 "HgN/A
12:50 PM70 °FBroken clouds.5 mph78%30.07 "HgN/A
12:20 PM70 °FPartly sunny.5 mph83%30.07 "HgN/A
11:50 AM68 °FBroken clouds.1 mph83%30.07 "HgN/A
11:20 AM68 °FBroken clouds.2 mph83%30.07 "HgN/A
10:50 AM68 °FBroken clouds.2 mph83%30.07 "HgN/A
10:20 AM66 °FBroken clouds.3 mph88%30.07 "HgN/A
9:50 AM66 °FBroken clouds.2 mph88%30.07 "HgN/A
9:20 AM66 °FBroken clouds.6 mph88%30.07 "HgN/A
8:50 AM66 °FBroken clouds.5 mph88%30.04 "HgN/A
8:20 AM66 °FPartly sunny.2 mph88%30.04 "HgN/A
7:50 AM66 °FScattered clouds.5 mph88%30.04 "HgN/A
7:20 AM63 °FScattered clouds.3 mph100%30.04 "Hg6 mi
6:50 AM63 °FBroken clouds.2 mph100%30.04 "Hg5 mi
6:20 AM64 °FPassing clouds.1 mph94%30.04 "Hg6 mi
5:50 AM64 °FPassing clouds.3 mph94%30.04 "HgN/A
5:20 AM64 °FPassing clouds.2 mph94%30.04 "HgN/A
4:50 AM64 °FPassing clouds.1 mph94%30.04 "HgN/A
4:20 AM64 °FPassing clouds.1 mph94%30.04 "HgN/A
3:50 AM64 °FPartly cloudy.3 mph94%30.04 "HgN/A
3:20 AM64 °FPassing clouds.No wind94%30.04 "HgN/A
2:50 AM63 °FScattered showers. Passing clouds.2 mph100%30.04 "HgN/A
2:20 AM64 °FSprinkles. Passing clouds.5 mph94%30.04 "HgN/A
1:50 AM64 °FScattered showers. Passing clouds.2 mph94%30.04 "HgN/A
1:20 AM64 °FLight rain. Partly cloudy.2 mph94%30.04 "HgN/A
12:50 AM64 °FPartly cloudy.2 mph94%30.04 "HgN/A
12:20 AM64 °FPassing clouds.2 mph94%30.04 "HgN/A
11:50 PM
Fri, Jul 22
64 °FPartly cloudy.1 mph94%30.04 "HgN/A
11:20 PM64 °FPassing clouds.2 mph100%30.04 "HgN/A
10:50 PM64 °FPassing clouds.1 mph94%30.04 "HgN/A
10:20 PM64 °FPassing clouds.3 mph94%30.04 "HgN/A
9:50 PM64 °FPartly sunny.5 mph94%30.01 "HgN/A
9:20 PM64 °FSprinkles. Partly sunny.10 mph94%30.01 "HgN/A
8:50 PM64 °FThundershowers. Broken clouds.5 mph94%30.01 "HgN/A
8:20 PM66 °FThunderstorms. Broken clouds.7 mph88%30.01 "HgN/A
7:50 PM64 °FThunderstorms. Broken clouds.13 mph94%30.01 "HgN/A
7:20 PM70 °FThunderstorms. Broken clouds.7 mph73%29.98 "HgN/A
6:50 PM77 °FThundershowers. Broken clouds.6 mph65%29.98 "HgN/A
6:20 PM79 °FThundershowers. Broken clouds.6 mph58%29.98 "HgN/A
5:50 PM81 °FBroken clouds.7 mph51%29.95 "HgN/A
5:20 PM81 °FBroken clouds.6 mph51%29.98 "HgN/A
Weather by CustomWeather, © 2016

See weather overviewHow to use our weather pages